#timestamp,LO_Frequency,Hit,StdDev 
1627452015.1,286046999.0,P
1627452016.0,286046999.0,N
1627452035.8,286046997.1,P
1627452055.7,286046998.9,N
1627452075.5,286046998.5,N
1627452095.3,286046998.2,N
1627452115.2,286047001.7,N
1627452135.0,286047004.2,Y
1627452135.9,286047004.2,P
1627452155.8,286047004.9,N
1627452175.6,286047005.0,N
1627452195.4,286047005.7,N
1627452215.3,286047005.5,N
1627452235.1,286047006.8,N
1627452255.8,286047006.9,N
1627452275.7,286047006.3,N
1627452295.5,286047007.8,Y
1627452315.4,286047007.5,P
1627452335.2,286047009.1,P
1627452355.0,286047010.5,P
1627452355.9,286047010.5,Y
1627452375.8,286047000.5,P
1627452395.6,286046998.2,N
1627452415.4,286047001.1,N
1627452435.3,286046998.6,N
1627452455.1,286046998.3,N
1627452475.9,286047000.6,N
1627452495.7,286047002.6,N
1627452515.5,286047001.3,N
1627452535.4,286046999.8,N
1627452555.2,286047002.2,N
1627452575.0,286047001.2,N
1627452575.9,286047001.2,N
1627452595.8,286046996.9,N
1627452615.6,286046995.2,N
1627452635.5,286046995.2,N
1627452655.3,286046996.0,N
1627452675.1,286046991.8,N
1627452695.9,286046988.5,Y
1627452715.7,286046990.0,P
1627452735.5,286046988.4,N
1627452755.4,286046989.8,N
1627452775.2,286046994.5,N
1627452795.1,286046995.9,N
1627452796.0,286046995.9,N
1627452815.8,286046997.6,N
1627452835.6,286046998.2,N
1627452855.5,286046999.0,N
1627452875.3,286047001.1,N
1627452895.1,286046998.1,N
1627452915.9,286046999.7,N
1627452935.7,286047005.5,N
1627452955.6,286047001.4,N
1627452975.4,286047000.9,N
1627452995.2,286047000.7,N
1627453015.1,286046999.5,N
1627453016.0,286046999.5,N
1627453035.8,286046998.3,N
1627453055.6,286047000.7,N
1627453075.5,286046999.3,N
1627453095.3,286046996.5,N
1627453115.1,286046995.0,N
1627453135.9,286046995.3,N
1627453155.7,286047003.5,N
1627453175.6,286047007.7,N
1627453195.4,286047007.1,N
1627453215.2,286047005.8,N
1627453235.1,286047003.4,N
1627453236.0,286047003.4,N
1627453255.8,286047006.5,N
1627453275.6,286047010.4,N
1627453295.5,286047010.8,N
1627453315.3,286047007.9,N
1627453335.2,286047013.1,N
1627453355.9,286047018.2,Y
1627453375.7,286047018.8,P
1627453395.6,286047019.9,N
1627453415.4,286047021.2,N
1627453435.2,286047019.5,N
1627453455.1,286047018.2,N
1627453456.0,286047018.2,N
1627453475.8,286047015.9,N
1627453495.7,286047016.2,N
1627453515.5,286047012.5,N
1627453535.3,286047016.7,Y
1627453555.2,286047002.5,P
1627453575.0,286047003.8,N
1627453575.9,286047003.8,N
1627453595.8,286047001.4,N
1627453615.6,286047002.2,N
1627453635.4,286047002.5,N
1627453655.3,286047005.1,N
1627453675.1,286047008.7,N
1627453695.8,286047011.8,N
1627453715.7,286047013.3,N
1627453735.5,286047014.2,N
1627453755.4,286047016.6,Y
1627453775.2,286047009.6,P
1627453795.0,286047012.0,P
1627453795.9,286047012.0,P
1627453815.8,286047009.4,Y
1627453835.6,286047001.1,P
1627453855.4,286047002.5,N
1627453875.3,286046998.9,N
1627453895.1,286046997.5,N
1627453915.9,286046996.4,N
1627453935.7,286046993.9,N
1627453955.5,286046992.2,N
1627453975.4,286046991.0,N
1627453995.2,286046987.3,N
1627454015.0,286046984.1,N
1627454015.9,286046984.1,N
1627454035.8,286046983.8,N
1627454055.6,286046983.4,N
1627454075.5,286046983.6,N
1627454095.3,286046979.4,N
1627454115.2,286046976.9,N
1627454135.9,286046975.3,N
1627454155.8,286046972.5,N
1627454175.6,286046972.4,N
1627454195.4,286046972.3,N
1627454215.3,286046968.6,N
1627454235.1,286046970.8,N
1627454255.8,286046969.8,N
1627454275.9,286046979.7,N
1627454295.7,286046977.3,N
1627454315.6,286046975.9,N
1627454335.4,286046976.0,N
1627454355.2,286046977.0,N
1627454375.1,286046976.7,N
1627454376.0,286046976.7,N
1627454395.8,286046975.5,N
1627454415.7,286046976.9,N
1627454435.5,286046980.0,N
1627454455.3,286046983.9,N
1627454475.2,286046988.7,N
1627454495.0,286046988.3,N
1627454495.9,286046988.3,N
1627454515.8,286046984.0,N
1627454535.6,286046980.1,Y
1627454555.5,286046995.6,P
1627454575.3,286046991.3,N
1627454595.1,286046985.6,N
1627454615.9,286046980.5,Y
1627454635.7,286046994.4,P
1627454655.5,286046997.4,N
1627454675.4,286046995.7,N
1627454695.2,286046991.9,N
1627454715.1,286046991.3,N
1627454716.0,286046991.3,N
1627454735.8,286046990.9,Y
1627454755.6,286046997.2,P
1627454775.5,286046999.2,N
1627454795.3,286046998.1,N
1627454815.1,286047000.2,N
1627454835.9,286047003.0,N
1627454855.7,286047008.6,N
1627454875.6,286047011.4,N
1627454895.4,286047011.9,N
1627454915.2,286047014.4,N
1627454935.1,286047011.8,N
1627454936.0,286047011.8,N
1627454955.8,286047009.7,N
1627454975.6,286047010.2,N
1627454995.5,286047006.2,N
1627455015.3,286047005.2,N
1627455035.2,286047006.2,N
1627455055.9,286047010.5,N
1627455075.7,286047007.8,N
1627455095.6,286047005.6,N
1627455115.4,286047000.6,N
1627455135.2,286046996.5,N
1627455155.1,286046996.6,N
1627455156.0,286046996.6,N
1627455175.8,286046999.6,N
1627455195.6,286046997.0,N
1627455215.5,286046998.8,N
1627455235.3,286047000.7,N
1627455255.2,286046997.5,N
1627455275.9,286046992.9,N
1627455295.7,286046990.5,N
1627455315.6,286046992.2,N
1627455335.4,286046998.5,N
1627455355.2,286047001.0,N
1627455375.1,286046997.3,N
1627455376.0,286046997.3,N
1627455395.8,286046997.0,N
1627455415.7,286047005.6,N
1627455435.5,286047002.3,N
1627455455.3,286046999.5,N
1627455475.2,286046996.8,N
1627455495.0,286047003.9,N
1627455495.9,286047003.9,N
1627455515.8,286047006.2,N
1627455535.6,286047008.7,N
1627455555.4,286047012.3,N
1627455575.3,286047012.9,N
1627455595.1,286047011.2,N
